Weather History for Pittsburg, KS

Change the Weather History Date:

Friday, October 25, 2013

  Actual Average (KJLN) Record (KJLN)
Temperature  
Mean Temperature 44 °F 57 °F  
Max Temperature 58 °F 69 °F 83 °F (1989)
Min Temperature 30 °F 46 °F 27 °F (2005)
Degree Days  
Heating Degree Days 21 9  
Month to date heating degree days 152  
Since 1 July heating degree days 194  
Cooling Degree Days 0 1  
Month to date cooling degree days 43  
Year to date cooling degree days 1685  
Moisture  
Dew Point 30 °F    
Average Humidity 62    
Maximum Humidity 100    
Minimum Humidity 27    
Precipitation  
Precipitation 0.00 in 0.13 in 2.65 in (1954)
Month to date precipitation 3.27  
Year to date precipitation 39.19  
Sea Level Pressure  
Sea Level Pressure 30.38 in    
Wind  
Wind Speed 3 mph (South)    
Max Wind Speed 13 mph    
Max Gust Speed 17 mph    
Visibility 10 miles    
Events      
T = Trace of Precipitation, MM = Missing Value Source: NWS Daily Summary

Daily Weather History Graph

Daily Weather History Graph

Search for Another Location

Airport:

Trip Planner

Search our weather history database for the weather conditions in past years. The results will help you decide how hot, cold, wet, or windy it might be!

Date:

Astronomy

Oct. 25, 2013 Rise Set
Actual Time 7:36 AM CDT 6:28 PM CDT
Civil Twilight 7:10 AM CDT 6:55 PM CDT
Nautical Twilight 6:39 AM CDT 7:25 PM CDT
Astronomical Twilight 6:09 AM CDT 7:56 PM CDT
Moon 11:50 PM CDT (10/25) 1:15 PM CDT (10/25)
Length of Visible Light 11h 44m
Length of Day
10h 51m
Waning Gibbous, 62% of the Moon is Illuminated
Oct 25
Waning Gibbous
Oct 26
Last Quarter
Nov 3
New
Nov 9
First Quarter
Nov 17
Full

Hourly Weather History & Observations

Time (CDT) Temp. Windchill Dew Point Humidity Pressure Visibility Wind Dir Wind Speed Gust Speed Precip Events Conditions
12:15 AM 34.9 °F - 34.9 °F 100% 30.43 in 10.0 mi Calm Calm - N/A   Clear
12:35 AM 32.9 °F - 32.9 °F 100% 30.43 in 10.0 mi Calm Calm - N/A   Clear
12:55 AM 32.9 °F - 32.9 °F 100% 30.43 in 10.0 mi Calm Calm - N/A   Clear
1:15 AM 32.9 °F - 32.9 °F 100% 30.44 in 10.0 mi Calm Calm - N/A   Clear
1:35 AM 32.9 °F - 32.9 °F 100% 30.44 in 10.0 mi Calm Calm - N/A   Clear
1:55 AM 32.9 °F - 32.9 °F 100% 30.44 in 10.0 mi Calm Calm - N/A   Clear
2:15 AM 32.7 °F - 32.7 °F 100% 30.44 in 10.0 mi Calm Calm - N/A   Clear
2:35 AM 32.2 °F - 32.2 °F 100% 30.45 in 10.0 mi Calm Calm - N/A   Clear
2:55 AM 32.0 °F - 32.0 °F 100% 30.45 in 10.0 mi Calm Calm - N/A   Clear
3:15 AM 32.0 °F - 32.0 °F 100% 30.45 in 10.0 mi Calm Calm - N/A   Clear
3:35 AM 31.8 °F - 31.8 °F 100% 30.45 in 10.0 mi Calm Calm - N/A   Clear
3:55 AM 31.6 °F - 31.8 °F 100% 30.45 in 10.0 mi Calm Calm - N/A   Clear
4:15 AM 31.8 °F - 32.0 °F 100% 30.46 in - Calm Calm - N/A   Unknown
4:35 AM 31.1 °F - 31.3 °F 100% 30.46 in - Calm Calm - N/A   Unknown
4:55 AM 30.7 °F - 30.9 °F 100% 30.46 in - Calm Calm - N/A   Unknown
5:15 AM 30.7 °F - 30.9 °F 100% 30.46 in - Calm Calm - N/A   Unknown
5:35 AM 30.7 °F - 30.9 °F 100% 30.47 in 7.0 mi Calm Calm - N/A   Clear
5:55 AM 30.7 °F - 30.9 °F 100% 30.47 in 10.0 mi Calm Calm - N/A   Clear
6:15 AM 30.7 °F - 30.9 °F 100% 30.47 in 10.0 mi Calm Calm - N/A   Clear
6:35 AM 30.7 °F - - N/A% 30.47 in 10.0 mi Calm Calm - N/A   Clear
6:55 AM 30.7 °F - - N/A% 30.47 in 10.0 mi Calm Calm - N/A   Clear
7:15 AM 30.7 °F - - N/A% 30.47 in 10.0 mi Calm Calm - N/A   Clear
7:35 AM 30.7 °F - - N/A% 30.47 in 10.0 mi Calm Calm - N/A   Clear
7:55 AM 30.7 °F - - N/A% 30.47 in 10.0 mi Calm Calm - N/A   Clear
8:15 AM 31.3 °F - - N/A% 30.47 in 10.0 mi Calm Calm - N/A   Clear
8:35 AM 33.1 °F - - N/A% 30.48 in 10.0 mi Calm Calm - N/A   Clear
8:55 AM 36.1 °F - 36.3 °F 100% 30.49 in 10.0 mi Calm Calm - N/A   Clear
9:15 AM 39.0 °F 36.8 °F 36.1 °F 89% 30.49 in 10.0 mi SSE 3.5 mph - N/A   Clear
9:35 AM 41.5 °F 36.4 °F 33.1 °F 72% 30.49 in 10.0 mi SSE 8.1 mph - N/A   Clear
9:55 AM 43.3 °F 39.2 °F 31.5 °F 63% 30.49 in 10.0 mi SSE 6.9 mph - N/A   Clear
10:15 AM 46.0 °F 41.4 °F 30.9 °F 56% 30.48 in 10.0 mi SE 9.2 mph - N/A   Clear
10:35 AM 49.3 °F - 31.3 °F 50% 30.48 in 10.0 mi SSE 6.9 mph - N/A   Clear
10:55 AM 50.9 °F - 29.8 °F 44% 30.47 in 10.0 mi SE 8.1 mph - N/A   Clear
11:15 AM 50.9 °F - 27.1 °F 40% 30.47 in 10.0 mi SE 9.2 mph 16.1 mph N/A   Clear
11:35 AM 50.9 °F - 24.6 °F 36% 30.46 in 10.0 mi SE 12.7 mph 17.3 mph N/A   Clear
11:55 AM 51.4 °F - 25.2 °F 36% 30.45 in 10.0 mi SSE 11.5 mph 17.3 mph N/A   Clear
12:15 PM 52.5 °F - 25.3 °F 35% 30.44 in 10.0 mi South 9.2 mph - N/A   Clear
12:35 PM 53.2 °F - 26.2 °F 35% 30.44 in 10.0 mi South 9.2 mph - N/A   Clear
12:55 PM 54.9 °F - 27.3 °F 35% 30.43 in 10.0 mi SSE 10.4 mph - N/A   Clear
1:15 PM 55.8 °F - 26.8 °F 33% 30.42 in 10.0 mi SSE 10.4 mph - N/A   Clear
1:35 PM 55.8 °F - 26.2 °F 32% 30.40 in 10.0 mi South 8.1 mph - N/A   Clear
1:55 PM 55.8 °F - 26.2 °F 32% 30.38 in 10.0 mi SSE 11.5 mph - N/A   Clear
2:15 PM 55.9 °F - 25.9 °F 31% 30.37 in 10.0 mi South 9.2 mph - N/A   Clear
2:35 PM 56.3 °F - 25.9 °F 31% 30.36 in 10.0 mi SSW 6.9 mph 11.5 mph N/A   Clear
2:55 PM 58.1 °F - 26.6 °F 30% 30.35 in 10.0 mi SW 10.4 mph - N/A   Clear
3:15 PM 58.1 °F - 25.5 °F 29% 30.34 in 10.0 mi South 6.9 mph - N/A   Clear
3:35 PM 58.3 °F - 25.0 °F 28% 30.33 in 10.0 mi South 5.8 mph - N/A   Clear
3:55 PM 58.3 °F - 24.4 °F 27% 30.32 in 10.0 mi SSW 8.1 mph - N/A   Clear
4:15 PM 58.3 °F - 24.4 °F 27% 30.31 in 10.0 mi South 9.2 mph - N/A   Clear
4:35 PM 58.3 °F - 25.2 °F 28% 30.29 in 10.0 mi SSW 8.1 mph - N/A   Clear
4:55 PM 58.3 °F - 26.1 °F 29% 30.29 in 10.0 mi South 6.9 mph - N/A   Clear
5:15 PM 58.3 °F - 27.1 °F 30% 30.28 in 10.0 mi South 6.9 mph - N/A   Clear
5:35 PM 57.9 °F - 27.1 °F 31% 30.28 in 10.0 mi SSW 5.8 mph - N/A   Clear
5:55 PM 56.1 °F - 26.6 °F 32% 30.27 in 10.0 mi SSW 6.9 mph - N/A   Clear
6:15 PM 54.7 °F - 28.9 °F 37% 30.27 in 10.0 mi SSW 5.8 mph - N/A   Clear
6:35 PM 51.8 °F - 29.1 °F 42% 30.26 in 10.0 mi South 4.6 mph - N/A   Clear
6:55 PM 51.1 °F - 29.1 °F 43% 30.25 in 10.0 mi South 4.6 mph - N/A   Clear
7:15 PM 50.9 °F - 30.9 °F 46% 30.25 in 10.0 mi South 4.6 mph - N/A   Clear
7:35 PM 50.5 °F - 32.0 °F 49% 30.24 in 10.0 mi South 3.5 mph - N/A   Clear
7:55 PM 50.0 °F - 31.8 °F 50% 30.24 in 10.0 mi South 4.6 mph - N/A   Clear
8:15 PM 48.2 °F - 31.5 °F 52% 30.24 in 10.0 mi South 4.6 mph - N/A   Clear
8:35 PM 48.2 °F - 31.8 °F 53% 30.23 in 10.0 mi South 4.6 mph - N/A   Clear
8:55 PM 47.7 °F - 32.4 °F 55% 30.23 in 10.0 mi South 6.9 mph - N/A   Clear
9:15 PM 48.2 °F - 32.4 °F 54% 30.23 in 10.0 mi South 6.9 mph - N/A   Clear
9:35 PM 48.2 °F - 32.7 °F 55% 30.23 in 10.0 mi SSW 6.9 mph - N/A   Clear
9:55 PM 48.2 °F - 33.6 °F 57% 30.22 in 10.0 mi SSW 8.1 mph - N/A   Clear
10:15 PM 48.6 °F - 34.3 °F 58% 30.22 in 10.0 mi SSW 8.1 mph - N/A   Clear
10:35 PM 48.2 °F - 34.2 °F 58% 30.21 in 10.0 mi SSW 8.1 mph - N/A   Clear
10:55 PM 47.7 °F - 34.7 °F 61% 30.21 in 10.0 mi SSW 4.6 mph - N/A   Clear
11:15 PM 45.5 °F 42.5 °F 33.8 °F 64% 30.20 in 10.0 mi SSW 5.8 mph - N/A   Clear
11:35 PM 44.6 °F 41.4 °F 33.8 °F 66% 30.19 in 10.0 mi SSW 5.8 mph - N/A   Clear
11:55 PM 44.2 °F 41.8 °F 34.0 °F 67% 30.19 in 10.0 mi SSW 4.6 mph - N/A   Clear